Ana Sayfa
METAR-TAF:

METAR-TAF

Havaalanları :

Webster_Field

St. Inigoes, Maryland, Amerika Birleşik Devletleri

Enlem: 38-08-56N, Boylam: 076-25-12W, yükseklik: 6 m

Güncel hava durumu gözlemi

Rapor saat 06:53 UTC de 32 dakika önce yapıldı.
Rüzgar kuzeybatıdan 3 kt
Sıcaklık 2°C
Nem 60%
Basınç 1013 hPa
Görüş mesafesi: 16.1 km
Açık gökyüzü

METAR: KNUI 290653Z AUTO 31003KT 10SM CLR 02/M05 A2992 RMK AO2 SLP132 T00171050

Saat: 02:25 (07:25 UTC)


TAF: eksik

4.000'den fazla havaalanı için hava durumu gözlemleri ve tahminleri (METAR ve TAF raporları).

Kullanılabilir istasyonlar harita üzerinde sarı ve kırmızı noktalarla gösterilir.

İstasyonun adını görmek için fareyi noktanın üzerinde gezdirin.

Sonrasında hava gözlem ve tahminlerini görmek için tıklayın.

Haritayı değiştirmek için: yaklaştırmak için siyah artı işaretli yeşil düğmeye ve uzaklaştırmak için de eksi işaretli düğmeye hızla tıklayın; bitişik haritalar için yeşil okları kullanın.


METAR-TAF: